Time,TemperatureF,DewpointF,PressureIn,WindDirection,WindDirectionDegrees,WindSpeedMPH,WindSpeedGustMPH,Humidity,HourlyPrecipIn,Conditions,Clouds,dailyrainin,SoftwareType,DateUTC
2013-04-16 00:03:00,51.0,48.0,29.89,NNW,347,0.0,2.0,91,0.00,,,0.02,,2013-04-16 04:03:00,
2013-04-16 00:12:00,51.0,48.0,29.89,NNW,347,0.0,2.0,91,0.00,,,0.02,,2013-04-16 04:12:00,
2013-04-16 00:23:00,50.0,48.0,29.89,NNE,22,1.0,5.0,92,0.00,,,0.02,,2013-04-16 04:23:00,
2013-04-16 00:33:00,49.0,47.0,29.89,North,351,1.0,6.0,92,0.00,,,0.02,,2013-04-16 04:33:00,
2013-04-16 00:42:00,49.0,47.0,29.89,North,351,1.0,6.0,92,0.00,,,0.02,,2013-04-16 04:42:00,
2013-04-16 00:52:00,48.0,46.0,29.92,NNE,26,2.0,5.0,92,0.00,,,0.02,,2013-04-16 04:52:00,
2013-04-16 01:02:00,48.0,46.0,29.91,NNE,12,2.0,6.0,92,0.00,,,0.02,,2013-04-16 05:02:00,
2013-04-16 01:12:00,48.0,46.0,29.91,NNE,12,2.0,6.0,92,0.00,,,0.02,,2013-04-16 05:12:00,
2013-04-16 01:22:00,47.0,45.0,29.91,NNW,327,1.0,3.0,93,0.00,,,0.02,,2013-04-16 05:22:00,
2013-04-16 01:32:00,47.0,45.0,29.92,North,5,1.0,4.0,93,0.00,,,0.02,,2013-04-16 05:32:00,
2013-04-16 01:42:00,47.0,45.0,29.92,North,5,1.0,4.0,93,0.00,,,0.02,,2013-04-16 05:42:00,
2013-04-16 01:52:00,47.0,45.0,29.93,North,355,0.0,4.0,93,0.00,,,0.02,,2013-04-16 05:52:00,
2013-04-16 02:02:00,47.0,45.0,29.94,North,360,0.0,3.0,93,0.00,,,0.02,,2013-04-16 06:02:00,
2013-04-16 02:12:00,47.0,45.0,29.94,North,360,0.0,3.0,93,0.00,,,0.02,,2013-04-16 06:12:00,
2013-04-16 02:22:00,47.0,45.0,29.93,North,5,0.0,2.0,94,0.00,,,0.02,,2013-04-16 06:22:00,
2013-04-16 02:32:00,47.0,45.0,29.93,North,355,0.0,2.0,94,0.00,,,0.02,,2013-04-16 06:32:00,
2013-04-16 02:42:00,47.0,45.0,29.93,North,355,0.0,2.0,94,0.00,,,0.02,,2013-04-16 06:42:00,
2013-04-16 02:52:00,47.0,45.0,29.93,North,5,0.0,2.0,94,0.00,,,0.02,,2013-04-16 06:52:00,
2013-04-16 03:02:00,47.0,46.0,29.94,North,355,0.0,1.0,95,0.00,,,0.02,,2013-04-16 07:02:00,
2013-04-16 03:12:00,47.0,46.0,29.94,North,355,0.0,1.0,95,0.00,,,0.02,,2013-04-16 07:12:00,
2013-04-16 03:22:00,47.0,45.0,29.92,NNE,20,0.0,3.0,94,0.00,,,0.02,,2013-04-16 07:22:00,
2013-04-16 03:32:00,47.0,45.0,29.91,NNE,18,0.0,4.0,94,0.00,,,0.02,,2013-04-16 07:32:00,
2013-04-16 03:42:00,47.0,45.0,29.91,NNE,18,0.0,4.0,94,0.00,,,0.02,,2013-04-16 07:42:00,
2013-04-16 03:53:00,47.0,45.0,29.91,NNW,338,0.0,3.0,94,0.00,,,0.02,,2013-04-16 07:53:00,
2013-04-16 04:02:00,47.0,45.0,29.92,NNE,15,0.0,3.0,94,0.01,,,0.03,,2013-04-16 08:02:00,
2013-04-16 04:12:00,47.0,45.0,29.92,NNE,15,0.0,3.0,94,0.01,,,0.03,,2013-04-16 08:12:00,
2013-04-16 04:22:00,47.0,45.0,29.91,NNW,348,0.0,2.0,94,0.01,,,0.03,,2013-04-16 08:22:00,
2013-04-16 04:32:00,47.0,45.0,29.93,North,5,0.0,2.0,94,0.01,,,0.03,,2013-04-16 08:32:00,
2013-04-16 04:42:00,47.0,45.0,29.93,North,5,0.0,2.0,94,0.01,,,0.03,,2013-04-16 08:42:00,
2013-04-16 04:52:00,46.0,44.0,29.94,North,355,0.0,3.0,94,0.01,,,0.03,,2013-04-16 08:52:00,
2013-04-16 05:02:00,46.0,45.0,29.95,North,9,0.0,4.0,95,0.00,,,0.03,,2013-04-16 09:02:00,
2013-04-16 05:12:00,46.0,45.0,29.95,North,9,0.0,4.0,95,0.00,,,0.03,,2013-04-16 09:12:00,
2013-04-16 05:22:00,46.0,45.0,29.93,NNW,348,0.0,1.0,95,0.00,,,0.03,,2013-04-16 09:22:00,
2013-04-16 05:33:00,46.0,45.0,29.94,North,350,0.0,1.0,95,0.00,,,0.03,,2013-04-16 09:33:00,
2013-04-16 05:42:00,46.0,45.0,29.94,North,350,0.0,1.0,95,0.00,,,0.03,,2013-04-16 09:42:00,
2013-04-16 05:52:00,46.0,45.0,29.95,North,355,0.0,1.0,95,0.00,,,0.03,,2013-04-16 09:52:00,
2013-04-16 06:03:00,46.0,45.0,29.95,NNW,348,0.0,1.0,95,0.00,,,0.03,,2013-04-16 10:03:00,
2013-04-16 06:13:00,46.0,45.0,29.95,NNW,348,0.0,1.0,95,0.00,,,0.03,,2013-04-16 10:13:00,
2013-04-16 06:23:00,46.0,45.0,29.96,NNW,348,0.0,1.0,95,0.00,,,0.03,,2013-04-16 10:23:00,
2013-04-16 06:33:00,46.0,45.0,29.97,NNE,17,0.0,4.0,95,0.00,,,0.03,,2013-04-16 10:33:00,
2013-04-16 06:42:00,46.0,45.0,29.97,NNE,17,0.0,4.0,95,0.00,,,0.03,,2013-04-16 10:42:00,
2013-04-16 06:52:00,45.0,44.0,29.98,NNE,15,0.0,3.0,95,0.00,,,0.03,,2013-04-16 10:52:00,
2013-04-16 07:02:00,45.0,43.0,29.98,ENE,57,1.0,4.0,94,0.00,,,0.03,,2013-04-16 11:02:00,
2013-04-16 07:12:00,45.0,43.0,29.98,ENE,57,1.0,4.0,94,0.00,,,0.03,,2013-04-16 11:12:00,
2013-04-16 07:22:00,44.0,42.0,30.00,NNE,30,2.0,5.0,94,0.00,,,0.03,,2013-04-16 11:22:00,
2013-04-16 07:32:00,44.0,42.0,30.01,NNE,24,1.0,3.0,93,0.00,,,0.03,,2013-04-16 11:32:00,
2013-04-16 07:42:00,44.0,42.0,30.01,NNE,24,1.0,3.0,93,0.00,,,0.03,,2013-04-16 11:42:00,
2013-04-16 07:52:00,44.0,42.0,30.02,NNW,345,1.0,3.0,93,0.00,,,0.03,,2013-04-16 11:52:00,
2013-04-16 08:02:00,43.0,41.0,30.03,NNW,348,0.0,2.0,93,0.00,,,0.03,,2013-04-16 12:02:00,
2013-04-16 08:12:00,43.0,41.0,30.03,NNW,348,0.0,2.0,93,0.00,,,0.03,,2013-04-16 12:12:00,
2013-04-16 08:22:00,43.0,41.0,30.03,NNE,15,0.0,3.0,93,0.00,,,0.03,,2013-04-16 12:22:00,
2013-04-16 08:32:00,44.0,42.0,30.04,North,5,0.0,2.0,93,0.00,,,0.03,,2013-04-16 12:32:00,
2013-04-16 08:42:00,44.0,42.0,30.04,North,5,0.0,2.0,93,0.00,,,0.03,,2013-04-16 12:42:00,
2013-04-16 08:52:00,44.0,42.0,30.05,North,5,0.0,3.0,92,0.00,,,0.03,,2013-04-16 12:52:00,
2013-04-16 09:02:00,44.0,42.0,30.05,North,5,0.0,3.0,92,0.00,,,0.03,,2013-04-16 13:02:00,
2013-04-16 09:12:00,44.0,42.0,30.05,North,5,0.0,3.0,92,0.00,,,0.03,,2013-04-16 13:12:00,
2013-04-16 09:22:00,44.0,42.0,30.05,North,5,0.0,2.0,92,0.00,,,0.03,,2013-04-16 13:22:00,
2013-04-16 09:32:00,44.0,42.0,30.06,North,9,0.0,2.0,91,0.00,,,0.03,,2013-04-16 13:32:00,
2013-04-16 09:42:00,44.0,42.0,30.06,North,9,0.0,2.0,91,0.00,,,0.03,,2013-04-16 13:42:00,
2013-04-16 09:52:00,44.0,42.0,30.07,North,9,0.0,2.0,91,0.00,,,0.03,,2013-04-16 13:52:00,
2013-04-16 10:02:00,44.0,42.0,30.07,North,11,0.0,0.0,91,0.00,,,0.03,,2013-04-16 14:02:00,
2013-04-16 10:12:00,44.0,42.0,30.07,North,11,0.0,0.0,91,0.00,,,0.03,,2013-04-16 14:12:00,
2013-04-16 10:22:00,44.0,41.0,30.08,NNW,343,0.0,2.0,90,0.00,,,0.03,,2013-04-16 14:22:00,
2013-04-16 10:32:00,45.0,42.0,30.08,NW,322,0.0,2.0,90,0.00,,,0.03,,2013-04-16 14:32:00,
2013-04-16 10:42:00,45.0,42.0,30.08,NW,322,0.0,2.0,90,0.00,,,0.03,,2013-04-16 14:42:00,
2013-04-16 10:52:00,45.0,42.0,30.08,NNW,328,0.0,2.0,89,0.01,,,0.04,,2013-04-16 14:52:00,
2013-04-16 11:02:00,47.0,44.0,30.09,NNW,331,0.0,4.0,89,0.01,,,0.04,,2013-04-16 15:02:00,
2013-04-16 11:12:00,47.0,44.0,30.09,NNW,331,0.0,4.0,89,0.01,,,0.04,,2013-04-16 15:12:00,
2013-04-16 11:22:00,48.0,45.0,30.08,North,355,0.0,2.0,88,0.01,,,0.04,,2013-04-16 15:22:00,
2013-04-16 11:33:00,51.0,46.0,30.07,NNE,23,0.0,2.0,84,0.01,,,0.04,,2013-04-16 15:33:00,
2013-04-16 11:43:00,51.0,46.0,30.07,NNE,23,0.0,2.0,84,0.01,,,0.04,,2013-04-16 15:43:00,
2013-04-16 11:53:00,52.0,45.0,30.08,North,351,1.0,4.0,78,0.00,,,0.04,,2013-04-16 15:53:00,
2013-04-16 12:03:00,52.0,46.0,30.09,NNE,22,1.0,4.0,80,0.00,,,0.04,,2013-04-16 16:03:00,
2013-04-16 12:13:00,52.0,46.0,30.09,NNE,22,1.0,4.0,80,0.00,,,0.04,,2013-04-16 16:13:00,
2013-04-16 12:23:00,54.0,48.0,30.08,North,355,1.0,3.0,81,0.00,,,0.04,,2013-04-16 16:23:00,
2013-04-16 12:32:00,54.0,47.0,30.09,North,360,1.0,6.0,76,0.00,,,0.04,,2013-04-16 16:32:00,
2013-04-16 12:42:00,54.0,47.0,30.09,North,360,1.0,6.0,76,0.00,,,0.04,,2013-04-16 16:42:00,
2013-04-16 12:52:00,53.0,46.0,30.09,North,5,0.0,4.0,76,0.00,,,0.04,,2013-04-16 16:52:00,
2013-04-16 13:02:00,54.0,46.0,30.10,NNW,335,0.0,4.0,75,0.00,,,0.04,,2013-04-16 17:02:00,
2013-04-16 13:12:00,54.0,46.0,30.10,NNW,335,0.0,4.0,75,0.00,,,0.04,,2013-04-16 17:12:00,
2013-04-16 13:22:00,55.0,45.0,30.11,NNW,343,1.0,3.0,70,0.00,,,0.04,,2013-04-16 17:22:00,
2013-04-16 13:32:00,54.0,46.0,30.12,North,9,0.0,3.0,73,0.00,,,0.04,,2013-04-16 17:32:00,
2013-04-16 13:43:00,54.0,46.0,30.12,North,9,0.0,3.0,73,0.00,,,0.04,,2013-04-16 17:43:00,
2013-04-16 13:52:00,54.0,45.0,30.13,NNE,25,0.0,4.0,72,0.00,,,0.04,,2013-04-16 17:52:00,
2013-04-16 14:02:00,54.0,44.0,30.14,NW,321,0.0,7.0,69,0.00,,,0.04,,2013-04-16 18:02:00,
2013-04-16 14:12:00,54.0,44.0,30.14,NW,321,0.0,7.0,69,0.00,,,0.04,,2013-04-16 18:12:00,
2013-04-16 14:22:00,54.0,44.0,30.14,NNE,33,0.0,3.0,68,0.00,,,0.04,,2013-04-16 18:22:00,
2013-04-16 14:32:00,54.0,44.0,30.14,NNW,335,0.0,4.0,68,0.00,,,0.04,,2013-04-16 18:32:00,
2013-04-16 14:42:00,54.0,44.0,30.14,NNW,335,0.0,4.0,68,0.00,,,0.04,,2013-04-16 18:42:00,
2013-04-16 14:52:00,54.0,44.0,30.14,WSW,257,1.0,3.0,68,0.00,,,0.04,,2013-04-16 18:52:00,
2013-04-16 15:02:00,54.0,44.0,30.12,North,350,1.0,5.0,69,0.00,,,0.04,,2013-04-16 19:02:00,
2013-04-16 15:12:00,54.0,44.0,30.12,North,350,1.0,5.0,69,0.00,,,0.04,,2013-04-16 19:12:00,
2013-04-16 15:22:00,55.0,45.0,30.13,NE,55,0.0,3.0,68,0.00,,,0.04,,2013-04-16 19:22:00,
2013-04-16 15:32:00,54.0,43.0,30.14,North,5,0.0,4.0,66,0.00,,,0.04,,2013-04-16 19:32:00,
2013-04-16 15:42:00,54.0,43.0,30.14,North,5,0.0,4.0,66,0.00,,,0.04,,2013-04-16 19:42:00,
2013-04-16 15:52:00,54.0,43.0,30.13,North,9,1.0,4.0,65,0.00,,,0.04,,2013-04-16 19:52:00,
2013-04-16 16:02:00,54.0,43.0,30.14,NE,34,0.0,4.0,67,0.00,,,0.04,,2013-04-16 20:02:00,
2013-04-16 16:12:00,54.0,43.0,30.14,NE,34,0.0,4.0,67,0.00,,,0.04,,2013-04-16 20:12:00,
2013-04-16 16:22:00,54.0,43.0,30.14,NW,313,0.0,3.0,67,0.00,,,0.04,,2013-04-16 20:22:00,
2013-04-16 16:32:00,53.0,40.0,30.13,NNE,21,0.0,3.0,62,0.00,,,0.04,,2013-04-16 20:32:00,
2013-04-16 16:42:00,53.0,40.0,30.13,NNE,21,0.0,3.0,62,0.00,,,0.04,,2013-04-16 20:42:00,
2013-04-16 16:52:00,54.0,41.0,30.13,NNW,338,1.0,4.0,62,0.00,,,0.04,,2013-04-16 20:52:00,
2013-04-16 17:02:00,54.0,41.0,30.13,North,360,0.0,4.0,61,0.00,,,0.04,,2013-04-16 21:02:00,
2013-04-16 17:12:00,54.0,41.0,30.13,North,360,0.0,4.0,61,0.00,,,0.04,,2013-04-16 21:12:00,
2013-04-16 17:22:00,55.0,40.0,30.15,NE,50,1.0,4.0,57,0.00,,,0.04,,2013-04-16 21:22:00,
2013-04-16 17:32:00,54.0,39.0,30.15,NNE,15,1.0,4.0,57,0.00,,,0.04,,2013-04-16 21:32:00,
2013-04-16 17:43:00,54.0,39.0,30.15,NNE,15,1.0,4.0,57,0.00,,,0.04,,2013-04-16 21:43:00,
2013-04-16 17:52:00,53.0,39.0,30.16,NNW,345,1.0,5.0,58,0.00,,,0.04,,2013-04-16 21:52:00,
2013-04-16 18:02:00,52.0,37.0,30.16,NNE,28,0.0,3.0,56,0.00,,,0.04,,2013-04-16 22:02:00,
2013-04-16 18:13:00,52.0,37.0,30.16,NNE,28,0.0,3.0,56,0.00,,,0.04,,2013-04-16 22:13:00,
2013-04-16 18:22:00,51.0,38.0,30.14,NNE,18,0.0,3.0,62,0.00,,,0.04,,2013-04-16 22:22:00,
2013-04-16 18:33:00,51.0,40.0,30.17,North,360,0.0,3.0,67,0.00,,,0.04,,2013-04-16 22:33:00,
2013-04-16 18:42:00,51.0,40.0,30.17,North,360,0.0,3.0,67,0.00,,,0.04,,2013-04-16 22:42:00,
2013-04-16 18:52:00,50.0,41.0,30.17,NNE,25,0.0,4.0,71,0.00,,,0.04,,2013-04-16 22:52:00,
2013-04-16 19:02:00,49.0,39.0,30.18,NNW,344,0.0,3.0,67,0.00,,,0.04,,2013-04-16 23:02:00,
2013-04-16 19:12:00,49.0,39.0,30.18,NNW,344,0.0,3.0,67,0.00,,,0.04,,2013-04-16 23:12:00,
2013-04-16 19:22:00,49.0,39.0,30.16,NE,46,0.0,3.0,68,0.00,,,0.04,,2013-04-16 23:22:00,
2013-04-16 19:32:00,49.0,38.0,30.17,North,351,0.0,3.0,66,0.00,,,0.04,,2013-04-16 23:32:00,
2013-04-16 19:42:00,49.0,38.0,30.17,North,351,0.0,3.0,66,0.00,,,0.04,,2013-04-16 23:42:00,
2013-04-16 19:52:00,49.0,38.0,30.18,North,5,0.0,4.0,65,0.00,,,0.03,,2013-04-16 23:52:00,
2013-04-16 20:02:00,49.0,39.0,30.18,North,355,0.0,2.0,67,0.00,,,0.03,,2013-04-17 00:02:00,
2013-04-16 20:12:00,49.0,39.0,30.18,North,355,0.0,2.0,67,0.00,,,0.03,,2013-04-17 00:12:00,
2013-04-16 20:22:00,48.0,39.0,30.19,North,360,0.0,3.0,70,0.00,,,0.03,,2013-04-17 00:22:00,
2013-04-16 20:32:00,48.0,39.0,30.19,North,355,0.0,3.0,71,0.00,,,0.03,,2013-04-17 00:32:00,
2013-04-16 20:42:00,48.0,39.0,30.19,North,355,0.0,3.0,71,0.00,,,0.03,,2013-04-17 00:42:00,
2013-04-16 20:52:00,47.0,38.0,30.16,North,5,1.0,3.0,70,0.00,,,0.02,,2013-04-17 00:52:00,
2013-04-16 21:02:00,47.0,37.0,30.19,North,355,0.0,2.0,69,0.00,,,0.02,,2013-04-17 01:02:00,
2013-04-16 21:12:00,47.0,37.0,30.19,North,355,0.0,2.0,69,0.00,,,0.02,,2013-04-17 01:12:00,
2013-04-16 21:22:00,47.0,38.0,30.19,North,349,0.0,3.0,70,0.00,,,0.02,,2013-04-17 01:22:00,
2013-04-16 21:32:00,47.0,38.0,30.19,NNW,337,0.0,3.0,70,0.00,,,0.02,,2013-04-17 01:32:00,
2013-04-16 21:42:00,47.0,38.0,30.19,NNW,337,0.0,3.0,70,0.00,,,0.02,,2013-04-17 01:42:00,
2013-04-16 21:52:00,47.0,38.0,30.19,NNW,330,0.0,3.0,71,0.00,,,0.02,,2013-04-17 01:52:00,
2013-04-16 22:02:00,46.0,37.0,30.20,North,349,0.0,3.0,71,0.00,,,0.02,,2013-04-17 02:02:00,
2013-04-16 22:12:00,46.0,37.0,30.20,North,349,0.0,3.0,71,0.00,,,0.02,,2013-04-17 02:12:00,
2013-04-16 22:22:00,46.0,38.0,30.18,NNE,17,1.0,4.0,74,0.00,,,0.02,,2013-04-17 02:22:00,
2013-04-16 22:32:00,45.0,38.0,30.22,North,5,0.0,2.0,75,0.00,,,0.02,,2013-04-17 02:32:00,
2013-04-16 22:42:00,45.0,38.0,30.22,North,5,0.0,2.0,75,0.00,,,0.02,,2013-04-17 02:42:00,
2013-04-16 22:52:00,45.0,38.0,30.21,North,355,0.0,1.0,75,0.00,,,0.02,,2013-04-17 02:52:00,
2013-04-16 23:02:00,45.0,38.0,30.20,NNW,338,1.0,4.0,76,0.00,,,0.02,,2013-04-17 03:02:00,
2013-04-16 23:12:00,45.0,38.0,30.20,NNW,338,1.0,4.0,76,0.00,,,0.02,,2013-04-17 03:12:00,
2013-04-16 23:22:00,45.0,38.0,30.20,NNW,339,0.0,2.0,76,0.00,,,0.02,,2013-04-17 03:22:00,
2013-04-16 23:33:00,45.0,38.0,30.20,NNW,344,0.0,2.0,76,0.00,,,0.02,,2013-04-17 03:33:00,
2013-04-16 23:42:00,45.0,38.0,30.20,NNW,344,0.0,2.0,76,0.00,,,0.02,,2013-04-17 03:42:00,
2013-04-16 23:53:00,45.0,38.0,30.22,NNW,346,0.0,1.0,75,0.00,,,0.02,,2013-04-17 03:53:00,